[[[{"header":{"parameterUnit":"kt","parameterCategory":2,"dx":1,"dy":1,"la1":30.253999710083008,"la2":30.299108505249023,"lo1":-89.0895004272461,"lo2":-89.04439544677734,"nx":28,"ny":28,"refTime":"2022-09-21T09:00:00:Z","depth":0,"parameterNumber":1,"parameterNumberName":"U-component_of_WINDS"},"data":[3.3591,3.3658,3.3673,3.3755,3.3782,3.384,3.3865,3.39,3.3931,3.4,3.4043,3.4064,3.41,3.4153,3.4199,3.4207,3.4224,3.4236,3.4243,3.4178,3.417,3.4162,3.4147,3.424,3.424,3.4307,3.4307,3.4308,3.3539,3.3567,3.3616,3.3673,3.3714,3.3712,3.3757,3.3791,3.3842,3.3881,3.3925,3.3987,3.4038,3.4071,3.4121,3.4151,3.4151,3.4163,3.416,3.4165,3.4097,3.4081,3.4162,3.4162,3.4162,3.4162,3.4161,3.4161,3.3448,3.3487,3.3531,3.3584,3.3618,3.3655,3.3695,3.3721,3.3768,3.3825,3.3834,3.3893,3.3934,3.4003,3.403,3.4075,3.4064,3.4081,3.4085,3.4088,3.4089,3.3986,3.4085,3.4084,3.4084,3.4084,3.4084,0,3.3385,3.3395,3.3443,3.3496,3.3536,3.3578,3.3619,3.3644,3.3671,3.3709,3.3764,3.3798,3.3866,3.3919,3.397,3.3995,3.3994,3.3997,3.4008,3.4003,3.3991,3.3995,3.388,3.3994,3.3993,3.3992,3.3992,3.3992,3.3291,3.3337,3.3391,3.3423,3.3449,3.3501,3.3534,3.3554,3.3588,3.3641,3.3675,3.3729,3.3774,3.386,3.3888,3.3938,3.3938,3.3979,3.3945,3.3938,3.3935,3.3931,3.3934,3.3984,3.3985,3.3986,3.3986,0,3.3236,3.3262,3.3338,3.3388,3.3401,3.3448,3.3489,3.3529,3.3551,3.3609,3.3624,3.3656,3.371,3.3733,3.38,3.3809,3.3882,3.3882,3.3867,3.3867,3.3904,3.3899,3.4026,3.4042,3.3949,3.3949,3.395,0,3.3165,3.3224,3.3259,3.3302,3.3368,3.3388,3.3452,3.3477,3.3514,3.356,3.3565,3.3608,3.3631,3.3677,3.3692,3.3755,3.3769,3.3779,3.3781,3.3777,3.3775,3.3793,3.3787,3.379,3.3789,3.3789,3.3788,0,3.3074,3.3164,3.3234,3.3259,3.3318,3.335,3.3376,3.3418,3.3451,3.3497,3.3517,3.357,3.3598,3.3638,3.3656,3.3632,3.3735,3.3706,3.3745,3.3745,3.3765,3.3763,3.3872,3.3787,3.3787,3.3787,3.3787,0,3.3019,3.3068,3.3167,3.3215,3.3238,3.3285,3.3337,3.3383,3.3427,3.344,3.3476,3.3482,3.3542,3.351,3.3592,3.3555,3.3582,3.3598,3.3602,3.3606,3.357,3.3624,3.3728,3.3738,3.3612,3.3611,3.361,0,3.2906,3.3014,3.3032,3.3126,3.3178,3.3179,3.3232,3.3271,3.3293,3.3339,3.3363,3.3416,3.3398,3.3418,3.3456,3.3481,3.3529,3.3476,3.3538,3.354,3.3523,3.362,3.3628,3.3704,3.3592,3.3594,3.3595,0,3.2822,3.2895,3.291,3.2938,3.2996,3.3041,3.3101,3.3159,3.3189,3.3234,3.3283,3.3361,3.3349,3.3382,3.3392,3.343,3.3497,3.3413,3.3414,3.3424,3.3586,3.3593,3.3605,3.3495,3.3497,3.3499,3.3581,0,3.2728,3.2787,3.2831,3.2896,3.2934,3.2996,3.3022,3.3058,3.3064,3.3085,3.316,3.32,3.3258,3.328,3.3286,3.3368,3.3357,3.3345,3.3314,3.3378,3.3405,3.3417,3.3271,3.327,3.327,3.3269,0,0,3.2611,3.2696,3.2715,3.2775,3.2808,3.2809,3.2872,3.2905,3.2971,3.2993,3.2977,3.3091,3.3124,3.3211,3.3234,3.3258,3.3274,3.3251,3.3348,3.3357,3.3365,3.3394,3.3405,3.3268,3.3268,3.3268,3.3267,0,3.2582,3.2619,3.2682,3.2717,3.277,3.279,3.2805,3.2857,3.2874,3.2949,3.2947,3.2995,3.3087,3.3121,3.315,3.3242,3.3237,3.3258,3.3298,3.3341,3.3351,3.3359,3.3389,3.34,3.3266,3.3266,3.3266,0,3.2501,3.254,3.2575,3.2653,3.2688,3.2743,3.2718,3.2778,3.2819,3.2816,3.2889,3.2915,3.2963,3.3044,3.3082,3.3068,3.3201,3.3165,3.3169,3.3173,3.3216,3.3227,3.3238,3.3103,3.3102,3.3101,0,0,3.2472,3.2528,3.2576,3.2649,3.2671,3.2702,3.2735,3.2744,3.2789,3.2807,3.2839,3.2882,3.2935,3.2969,3.3021,3.3107,3.3117,3.3144,3.3151,3.3158,3.3165,3.3209,3.322,3.3099,3.3099,3.3099,0,0,3.2458,3.2517,3.2516,3.2604,3.2647,3.2698,3.2741,3.274,3.2789,3.2785,3.2803,3.2815,3.2892,3.2917,3.288,3.301,3.298,3.2989,3.299,3.3001,3.3008,3.2999,3.2858,0,0,0,0,0,3.2442,3.251,3.2508,3.2527,3.2626,3.27,3.2712,3.2729,3.2707,3.274,3.2767,3.276,3.29,3.2867,3.2885,3.2926,3.3066,3.3072,3.3077,3.3099,3.311,3.3118,0,0,0,0,0,0,3.2449,3.2472,3.2506,3.256,3.2583,3.2697,3.2663,3.2669,3.2704,3.2701,3.2755,3.2762,3.2777,3.2859,3.2875,3.2913,3.2853,3.3068,3.3073,3.3077,3.3103,3.3111,3.3118,0,0,0,0,0,3.2455,3.2474,3.263,3.256,3.2579,3.2618,3.266,3.2665,3.2692,3.2735,3.2741,3.2702,3.2778,3.2792,3.2869,3.2906,3.2842,3.2848,3.3071,3.3075,3.3079,3.3107,0,0,0,0,0,0,3.246,3.2478,3.2634,3.2641,3.2535,3.2612,3.2624,3.2662,3.2724,3.2731,3.2681,3.2679,3.2779,3.279,3.2801,3.2902,3.2833,3.2839,3.2843,3.3074,3.3077,3.308,0,0,0,0,0,0,3.2468,3.2484,3.2637,3.2606,3.2609,3.2606,3.2617,3.2685,3.2724,3.2667,3.2667,3.268,3.2762,3.2789,3.2797,3.2903,3.2827,3.2832,3.2836,3.2839,3.3077,3.3079,0,0,0,0,0,0,3.2475,3.2489,3.2604,3.2607,3.2609,3.2684,3.2666,3.2767,3.2698,3.2664,3.2693,3.269,3.2761,3.277,3.2795,3.2897,3.2901,3.2827,3.2831,3.2833,3.2835,0,0,0,0,0,0,0,3.2481,3.2388,3.2595,3.2607,3.261,3.2701,3.2703,3.2705,3.2698,3.2695,3.2693,3.2691,3.2794,3.2801,3.2807,3.2892,0,0,3.2826,3.2829,0,0,0,0,0,0,0,0,3.2383,3.2387,3.2596,3.2597,3.2598,3.2701,3.2703,3.2704,3.2697,3.2696,3.2694,3.2692,3.2796,3.2801,3.2806,0,0,0,0,0,0,0,0,0,0,0,0,0,0,0,3.2596,3.2597,0,3.2701,3.2703,3.2704,3.2697,3.2696,3.2694,3.2693,3.2797,3.2802,3.2806,0,0,0,0,0,0,0,0,0,0,0,0,0,0,0,0,0,0,0,0,0,0,0,0,0,0,0,0,0,0,0,0,0,0,0,0,0,0,0,0,0,0,0,0,0,0,0,0,0,0,0,0,0,0,0,0,0,0,0,0,0,0,0,0,0,0,0,0,0]}],[{"header":{"parameterUnit":"kt","parameterCategory":2,"dx":1,"dy":1,"la1":30.253999710083008,"la2":30.299108505249023,"lo1":-89.0895004272461,"lo2":-89.04439544677734,"nx":28,"ny":28,"refTime":"2022-09-21T09:00:00:Z","depth":0,"parameterNumber":2,"parameterNumberName":"V-component_of_WINDS"},"data":[2.1033,2.1053,2.1053,2.1076,2.1079,2.1095,2.11,2.1106,2.1111,2.1129,2.1139,2.114,2.1143,2.1154,2.1164,2.1164,2.1168,2.1176,2.1175,2.1142,2.1137,2.1132,2.1127,2.1177,2.1177,2.1209,2.1209,2.1209,2.1008,2.1012,2.1024,2.1036,2.1046,2.1038,2.1046,2.1055,2.1069,2.1075,2.1085,2.11,2.1111,2.1113,2.1123,2.1132,2.1128,2.1135,2.1134,2.1134,2.1099,2.1094,2.1137,2.1137,2.1137,2.1137,2.1137,2.1137,2.0963,2.0976,2.0982,2.0996,2.1001,2.1009,2.102,2.1021,2.1033,2.1044,2.1041,2.1056,2.1062,2.1074,2.1078,2.1089,2.1081,2.1088,2.1089,2.1091,2.1092,2.1046,2.1091,2.1091,2.109,2.109,2.109,0,2.093,2.0929,2.0941,2.0952,2.0962,2.097,2.0978,2.0985,2.0981,2.0991,2.1004,2.1012,2.1026,2.1038,2.1048,2.105,2.1042,2.1041,2.1045,2.1047,2.1047,2.1047,2.0988,2.104,2.1039,2.1039,2.1039,2.1038,2.0884,2.0899,2.0905,2.0914,2.0918,2.0931,2.0939,2.0934,2.0943,2.0951,2.0962,2.0974,2.0983,2.1004,2.1004,2.1015,2.1011,2.1031,2.1012,2.1013,2.101,2.1009,2.101,2.1034,2.1034,2.1035,2.1035,0,2.0858,2.0857,2.088,2.0885,2.0886,2.0902,2.0905,2.0917,2.0917,2.0933,2.0937,2.0936,2.0949,2.0946,2.0959,2.0957,2.0981,2.0977,2.0979,2.0978,2.0995,2.0993,2.1051,2.1058,2.1007,2.1008,2.1008,0,2.0818,2.0837,2.0835,2.0848,2.0869,2.0864,2.0885,2.0887,2.0892,2.0905,2.0895,2.0907,2.0902,2.0913,2.091,2.0929,2.0932,2.0931,2.093,2.0931,2.0932,2.0935,2.0932,2.0927,2.0927,2.0927,2.0927,0,2.0776,2.0798,2.082,2.0824,2.0831,2.0841,2.0845,2.085,2.0857,2.0866,2.0871,2.0881,2.0887,2.0895,2.0891,2.0879,2.0915,2.0897,2.0914,2.0914,2.0921,2.0921,2.0973,2.0926,2.0926,2.0926,2.0926,0,2.0744,2.0754,2.0785,2.0791,2.0796,2.0811,2.0821,2.0832,2.0839,2.0838,2.0845,2.0838,2.0855,2.0837,2.086,2.0845,2.0851,2.0852,2.0853,2.0854,2.0834,2.0864,2.0915,2.092,2.0856,2.0855,2.0854,0,2.0696,2.0728,2.0724,2.0754,2.0768,2.0757,2.0772,2.0778,2.0779,2.079,2.079,2.0803,2.0789,2.0793,2.0805,2.0805,2.0824,2.0802,2.0817,2.0818,2.0815,2.0863,2.0871,2.0904,2.0847,2.0848,2.0848,0,2.0659,2.0668,2.0674,2.0679,2.0686,2.0698,2.0716,2.0728,2.0736,2.0744,2.0758,2.0777,2.0767,2.0773,2.0768,2.0781,2.0811,2.0768,2.0768,2.0775,2.0843,2.0851,2.0856,2.0805,2.0806,2.0806,2.0842,0,2.0608,2.0624,2.064,2.0651,2.066,2.0679,2.0676,2.0686,2.0681,2.068,2.0701,2.0705,2.0717,2.0723,2.0718,2.0748,2.0742,2.0732,2.0714,2.0745,2.0757,2.0762,2.0696,2.0696,2.0695,2.0695,0,0,2.0563,2.0586,2.0581,2.0598,2.0605,2.0593,2.0613,2.0619,2.063,2.0634,2.0625,2.0651,2.0655,2.068,2.069,2.0695,2.07,2.0689,2.073,2.0734,2.0738,2.075,2.0756,2.0694,2.0694,2.0694,2.0694,0,2.0544,2.0549,2.057,2.0575,2.0583,2.0582,2.0587,2.0592,2.0593,2.0614,2.0603,2.0615,2.0636,2.0641,2.0647,2.0686,2.0676,2.069,2.0712,2.0726,2.073,2.0734,2.0748,2.0753,2.0693,2.0693,2.0693,0,2.0506,2.0511,2.052,2.0537,2.0541,2.0556,2.0537,2.0554,2.0565,2.055,2.0571,2.0572,2.0579,2.0604,2.0615,2.0606,2.0655,2.0639,2.0642,2.0643,2.0657,2.0662,2.0667,2.0602,2.0602,2.0602,0,0,2.049,2.0505,2.0508,2.0532,2.0536,2.0535,2.0542,2.0538,2.0545,2.0547,2.0549,2.0556,2.0568,2.0576,2.0587,2.0615,2.0616,2.0628,2.0633,2.0636,2.0639,2.0653,2.0659,2.0601,2.0601,2.0601,0,0,2.0482,2.0487,2.0481,2.0509,2.0516,2.052,2.0534,2.0527,2.0537,2.0534,2.0527,2.0528,2.0552,2.0554,2.0539,2.0581,2.0563,2.0566,2.0578,2.0584,2.0588,2.0587,2.0519,0,0,0,0,0,2.0461,2.0486,2.0481,2.0485,2.0505,2.0523,2.0525,2.052,2.0508,2.052,2.052,2.051,2.0544,2.0531,2.0535,2.0551,2.0586,2.0589,2.0591,2.0613,2.0619,2.0623,0,0,0,0,0,0,2.0462,2.0468,2.048,2.0485,2.049,2.0522,2.05,2.0499,2.0507,2.0504,2.051,2.051,2.0505,2.0529,2.0532,2.0548,2.0518,2.0587,2.0589,2.0591,2.0615,2.062,2.0624,0,0,0,0,0,2.0464,2.0468,2.0501,2.0485,2.0489,2.0488,2.0499,2.0498,2.0504,2.0504,2.0504,2.05,2.0506,2.0509,2.0531,2.0546,2.0515,2.0517,2.0589,2.059,2.0592,2.0617,0,0,0,0,0,0,2.0465,2.0467,2.0502,2.0503,2.0475,2.0486,2.0488,2.0497,2.0503,2.0503,2.0493,2.0492,2.0507,2.0509,2.0511,2.0546,2.0513,2.0515,2.0516,2.059,2.0591,2.0592,0,0,0,0,0,0,2.0465,2.0468,2.0503,2.0491,2.049,2.0485,2.0486,2.0504,2.0503,2.0492,2.049,2.0493,2.0503,2.0509,2.0511,2.0539,2.0512,2.0513,2.0514,2.0515,2.0591,2.0592,0,0,0,0,0,0,2.0466,2.0469,2.049,2.049,2.0489,2.05,2.05,2.0521,2.0494,2.0492,2.0491,2.049,2.0504,2.0505,2.051,2.0538,2.0538,2.0512,2.0513,2.0513,2.0514,0,0,0,0,0,0,0,2.0467,2.045,2.0497,2.0489,2.0489,2.0512,2.0512,2.0512,2.0493,2.0492,2.0491,2.049,2.0504,2.0506,2.0507,2.0537,0,0,2.0512,2.0512,0,0,0,0,0,0,0,0,2.0448,2.0449,2.0497,2.0497,2.0497,2.0512,2.0512,2.0512,2.0493,2.0492,2.0492,2.0491,2.0504,2.0506,2.0507,0,0,0,0,0,0,0,0,0,0,0,0,0,0,0,2.0497,2.0497,0,2.0512,2.0512,2.0512,2.0493,2.0492,2.0492,2.0491,2.0505,2.0506,2.0507,0,0,0,0,0,0,0,0,0,0,0,0,0,0,0,0,0,0,0,0,0,0,0,0,0,0,0,0,0,0,0,0,0,0,0,0,0,0,0,0,0,0,0,0,0,0,0,0,0,0,0,0,0,0,0,0,0,0,0,0,0,0,0,0,0,0,0,0,0]}]]]